(80142) = 1999 TX89

Discovered at Socorro on 1999-10-02 by LINEAR.

Orbit

Orbit type: Main Belt

Note: WebGL enabled browser required.

epoch2024-03-31.0
epoch JD2460400.5
perihelion date2022-11-14.11683
perihelion JD2459897.61683
argument of perihelion (°)323.66193
ascending node (°)43.84880
inclination (°)3.17074
eccentricity0.1725427
perihelion distance (AU)1.8344315
Tisserand w.r.t. Jupiter3.6
ΔV w.r.t. Earth (km/sec)8.4
semimajor axis (AU)2.2169501
mean anomaly (°)150.15405
mean daily motion (°/day)0.29858640
aphelion distance (AU)2.599
period (years)3.3
P-vector [x]0.99079199
P-vector [y]0.13356306
P-vector [z]0.02218416
Q-vector [x]-0.12985761
Q-vector [y]0.89107139
Q-vector [z]0.43488938
absolute magnitude16.57
phase slope0.15
uncertainty0
referenceMPEC 2024-E123
observations used1146
oppositions20
arc length (days)12069
first opposition used1991
last opposition used2024
residual rms (arc-secs)0.67
perturbers coarse indicatorM-v
perturbers precise indicator003Ek
first observation date used1991-02-20.0
last observation date used2024-03-07.0
computer nameMPCLINUX
JD of orbit computation2456819.564419
perihelion JD uncertainty (days)2.9292E-05
argument of perihelion uncertainty (°)6.5696E-05
ascending node uncertainty (°)6.5065E-05
inclination uncertainty (°)3.8666E-06
eccentricity uncertainty 4.4814E-08
perihelion distance uncertainty (AU)9.9674E-08
Minimum Orbit Intersection Distances (in AU)
for orbit epoch: 2460400.5, reference: E2024-FB1
Mercury1.47419
Venus1.10863
Earth0.83455
Mars0.42277
Jupiter2.85052
Saturn6.76459
Uranus15.8639
Neptune27.8792

Observations

1176 total observations over interval: 1991 02 20.39174 – 2024 03 07.303437
These data are available for download (format description).

Date (UT) J2000 RA J2000 Dec Magn Location Ref
1991 02 20.39174 11 05 06.87 +10 57 56.6 21.2 V 691 – Steward Observatory, Kitt Peak-Spacewatch MPS 77860
1991 02 20.42435 11 05 04.84 +10 58 08.6 21.3 V 691 – Steward Observatory, Kitt Peak-Spacewatch MPS 77860
1991 02 20.44604 11 05 03.55 +10 58 15.6 21.5 V 691 – Steward Observatory, Kitt Peak-Spacewatch MPS 77860
1991 02 21.27350 11 04 14.53 +11 03 18.0 20.9 V 691 – Steward Observatory, Kitt Peak-Spacewatch MPS 77860
1991 02 21.30373 11 04 12.71 +11 03 28.5 21.3 V 691 – Steward Observatory, Kitt Peak-Spacewatch MPS 77860
1991 02 21.32440 11 04 11.42 +11 03 36.2 21.2 V 691 – Steward Observatory, Kitt Peak-Spacewatch MPS 77860
1991 03 08.26468 10 48 42.42 +12 29 46.4 21.7 V 691 – Steward Observatory, Kitt Peak-Spacewatch MPS 77860
1991 03 08.28578 10 48 41.08 +12 29 52.8 21.4 V 691 – Steward Observatory, Kitt Peak-Spacewatch MPS 77860
1991 03 08.30684 10 48 39.70 +12 29 59.1 21.1 V 691 – Steward Observatory, Kitt Peak-Spacewatch MPS 77860
1993 12 14.44946 09 12 36.18 +20 47 53.5   691 – Steward Observatory, Kitt Peak-Spacewatch MPS 16534
1993 12 14.48559 09 12 35.84 +20 48 00.2   691 – Steward Observatory, Kitt Peak-Spacewatch MPS 16534
1993 12 14.52488 09 12 35.46 +20 48 06.4 20.1 V 691 – Steward Observatory, Kitt Peak-Spacewatch MPS 16534
1994 01 08.35091 08 58 41.44 +22 33 36.1   691 – Steward Observatory, Kitt Peak-Spacewatch MPS 16534
1994 01 08.38566 08 58 39.43 +22 33 47.0   691 – Steward Observatory, Kitt Peak-Spacewatch MPS 16534
1994 01 08.42115 08 58 37.26 +22 33 58.3 19.6 V 691 – Steward Observatory, Kitt Peak-Spacewatch MPS 16534
1999 09 07.40288 00 42 40.87 -00 47 12.9 18.8   704 – Lincoln Laboratory ETS, New Mexico MPS 15275
1999 09 07.41432 00 42 40.47 -00 47 14.6 19.3   704 – Lincoln Laboratory ETS, New Mexico MPS 15275
1999 09 07.42567 00 42 40.03 -00 47 17.5 19.2   704 – Lincoln Laboratory ETS, New Mexico MPS 15275
1999 09 07.43705 00 42 39.68 -00 47 19.5 19.0   704 – Lincoln Laboratory ETS, New Mexico MPS 15275
1999 09 07.44836 00 42 39.23 -00 47 20.1 19.1   704 – Lincoln Laboratory ETS, New Mexico MPS 15275
1999 09 14.26224 00 38 20.45 -01 08 11.9 18.7   704 – Lincoln Laboratory ETS, New Mexico MPS 15275
1999 09 14.27498 00 38 19.82 -01 08 15.1 19.3   704 – Lincoln Laboratory ETS, New Mexico MPS 15275
1999 09 14.28767 00 38 19.28 -01 08 16.1 19.4   704 – Lincoln Laboratory ETS, New Mexico MPS 15275
1999 09 14.30048 00 38 18.62 -01 08 20.2 19.0   704 – Lincoln Laboratory ETS, New Mexico MPS 15275
1999 09 14.31333 00 38 17.99 -01 08 22.3 18.9   704 – Lincoln Laboratory ETS, New Mexico MPS 15275
1999 10 02.31593 00 22 36.39 -02 09 43.2 18.2 R 699 – Lowell Observatory-LONEOS MPS 15275
1999 10 02.34649 00 22 34.48 -02 09 47.3   699 – Lowell Observatory-LONEOS MPS 15275
1999 10 02.34989 00 22 34.28 -02 09 49.5 18.0   704 – Lincoln Laboratory ETS, New Mexico MPS 13744
1999 10 02.36330 00 22 33.52 -02 09 51.4 18.3   704 – Lincoln Laboratory ETS, New Mexico MPS 13744
1999 10 02.37670 00 22 32.75 -02 09 53.4 18.4   704 – Lincoln Laboratory ETS, New Mexico MPS 13744
1999 10 02.37709 00 22 32.79 -02 09 55.0   699 – Lowell Observatory-LONEOS MPS 15275
1999 10 02.39014 00 22 31.97 -02 09 56.0 18.6   704 – Lincoln Laboratory ETS, New Mexico MPS 13744
1999 10 02.40353 00 22 31.21 -02 09 58.7 18.9   704 – Lincoln Laboratory ETS, New Mexico MPS 13744
1999 10 07.22006 00 18 09.44 -02 22 46.0 17.7 R 703 – Catalina Sky Survey MPS 15275
1999 10 07.23232 00 18 08.71 -02 22 48.4 17.6 R 703 – Catalina Sky Survey MPS 15275
1999 10 07.24454 00 18 08.05 -02 22 49.5 18.2 R 703 – Catalina Sky Survey MPS 15275
1999 10 07.25676 00 18 07.40 -02 22 50.8 17.7 R 703 – Catalina Sky Survey MPS 15275
1999 10 07.30898 00 18 04.47 -02 23 00.4 18.8   704 – Lincoln Laboratory ETS, New Mexico MPS 13744
1999 10 07.31954 00 18 03.81 -02 23 00.7 18.9   704 – Lincoln Laboratory ETS, New Mexico MPS 13744
1999 10 07.34076 00 18 02.57 -02 23 04.6 19.2   704 – Lincoln Laboratory ETS, New Mexico MPS 13744
1999 10 12.19752 00 13 57.90 -02 32 23.7 18.6 R 699 – Lowell Observatory-LONEOS MPS 15275
1999 10 12.22804 00 13 56.32 -02 32 25.2   699 – Lowell Observatory-LONEOS MPS 15275
1999 10 12.25859 00 13 54.77 -02 32 28.7   699 – Lowell Observatory-LONEOS MPS 15275
1999 10 15.17884 00 11 41.82 -02 36 03.2 17.9   704 – Lincoln Laboratory ETS, New Mexico MPS 15275
1999 10 15.19618 00 11 40.98 -02 36 04.0 18.3   704 – Lincoln Laboratory ETS, New Mexico MPS 15275
1999 10 15.21191 00 11 40.22 -02 36 05.1 18.8   704 – Lincoln Laboratory ETS, New Mexico MPS 15275
1999 10 15.22800 00 11 39.48 -02 36 06.4 18.6   704 – Lincoln Laboratory ETS, New Mexico MPS 15275
1999 10 15.24599 00 11 38.63 -02 36 07.4 18.4   704 – Lincoln Laboratory ETS, New Mexico MPS 15276
1999 11 03.17036 00 03 30.16 -02 15 37.1 18.7 R 703 – Catalina Sky Survey MPS 15276
1999 11 03.18666 00 03 30.07 -02 15 34.7 18.5 R 703 – Catalina Sky Survey MPS 15276
1999 11 03.20298 00 03 29.86 -02 15 31.4 18.8 R 703 – Catalina Sky Survey MPS 15276
1999 11 03.21935 00 03 29.75 -02 15 28.4 18.5 R 703 – Catalina Sky Survey MPS 15276
1999 11 07.16701 00 03 22.30 -02 01 29.7 19.1   704 – Lincoln Laboratory ETS, New Mexico MPS 15276
1999 11 07.19902 00 03 22.32 -02 01 21.8 18.9   704 – Lincoln Laboratory ETS, New Mexico MPS 15276
1999 11 07.21510 00 03 22.38 -02 01 17.8 18.2   704 – Lincoln Laboratory ETS, New Mexico MPS 15276
1999 11 15.14146 00 04 50.17 -01 23 34.6 18.5   704 – Lincoln Laboratory ETS, New Mexico MPS 15276
1999 11 15.15728 00 04 50.40 -01 23 29.6 19.5   704 – Lincoln Laboratory ETS, New Mexico MPS 15276
1999 11 15.17171 00 04 50.65 -01 23 25.8 19.2   704 – Lincoln Laboratory ETS, New Mexico MPS 15276
1999 11 15.20063 00 04 51.12 -01 23 15.4 19.1   704 – Lincoln Laboratory ETS, New Mexico MPS 15276
2001 02 20.445730 11 49 05.899 +05 47 08.71 20.25 V 645 – Apache Point-Sloan Digital Sky Survey MPS 79604
2001 02 20.449202 11 49 05.722 +05 47 09.86 21.13   645 – Apache Point-Sloan Digital Sky Survey MPS 79604
2002 06 17.41101 20 01 44.31 -25 27 54.4 19.2   644 – Palomar Mountain/NEAT MPS 58751
2002 06 17.42213 20 01 43.99 -25 27 57.1 19.1   644 – Palomar Mountain/NEAT MPS 58751
2002 06 17.43314 20 01 43.64 -25 27 59.8 19.2   644 – Palomar Mountain/NEAT MPS 58751
2002 07 05.31752 19 48 21.86 -26 45 41.5 18.7   704 – Lincoln Laboratory ETS, New Mexico MPS 58751
2002 07 05.31956 19 48 21.81 -26 45 41.1 19.1   644 – Palomar Mountain/NEAT MPS 58751
2002 07 05.33072 19 48 21.11 -26 45 46.0 19.5   704 – Lincoln Laboratory ETS, New Mexico MPS 58751
2002 07 05.34087 19 48 20.47 -26 45 46.6 18.7   644 – Palomar Mountain/NEAT MPS 58751
2002 07 05.34390 19 48 20.22 -26 45 48.6 19.1   704 – Lincoln Laboratory ETS, New Mexico MPS 58751
2002 07 05.35712 19 48 19.36 -26 45 51.7 19.1   704 – Lincoln Laboratory ETS, New Mexico MPS 58751
2002 07 05.36303 19 48 19.07 -26 45 52.2 18.8   644 – Palomar Mountain/NEAT MPS 58751
2002 07 05.37034 19 48 18.58 -26 45 54.5 19.5   704 – Lincoln Laboratory ETS, New Mexico MPS 58751
2004 01 18.32785 09 47 50.68 +18 47 34.2 19.7   644 – Palomar Mountain/NEAT MPS 96856
2004 01 18.35054 09 47 49.46 +18 47 41.5 19.8   644 – Palomar Mountain/NEAT MPS 96856
2004 01 18.37176 09 47 48.33 +18 47 48.7 19.6   644 – Palomar Mountain/NEAT MPS 96856
2004 01 22.29879 09 44 14.85 +19 09 48.2 20.1   704 – Lincoln Laboratory ETS, New Mexico MPS 96856
2004 01 22.32460 09 44 13.27 +19 09 57.0 20.2   704 – Lincoln Laboratory ETS, New Mexico MPS 96856
2004 01 22.33735 09 44 12.50 +19 10 00.4 19.8   704 – Lincoln Laboratory ETS, New Mexico MPS 96856
2004 01 22.35037 09 44 11.75 +19 10 05.6 20.2   704 – Lincoln Laboratory ETS, New Mexico MPS 96856
2004 02 11.39479 09 22 23.63 +20 58 20.7 19.8 V 691 – Steward Observatory, Kitt Peak-Spacewatch MPS 98570
2004 02 11.42300 09 22 21.69 +20 58 28.1 19.8 V 691 – Steward Observatory, Kitt Peak-Spacewatch MPS 98570
2004 02 11.45293 09 22 19.62 +20 58 36.2 19.8 V 691 – Steward Observatory, Kitt Peak-Spacewatch MPS 98570
2004 02 16.27242 09 16 59.59 +21 19 18.7 19.3   704 – Lincoln Laboratory ETS, New Mexico MPS 98570
2004 02 16.30750 09 16 57.28 +21 19 27.3 20.3   704 – Lincoln Laboratory ETS, New Mexico MPS 98570
